Weather History for Kars, Turkey

Change the Weather History Date:

Monday, September 30, 2013

  Actual Average Record
Temperature  
Mean Temperature 50 °F -  
Max Temperature 67 °F 56 °F - ()
Min Temperature 32 °F 32 °F - ()
Degree Days  
Heating Degree Days 16    
Moisture  
Dew Point 33 °F    
Average Humidity 53    
Maximum Humidity 93    
Minimum Humidity 20    
Precipitation  
Precipitation 0.00 in 0.05 in - ()
Sea Level Pressure  
Sea Level Pressure 30.06 in    
Wind  
Wind Speed 5 mph ()    
Max Wind Speed 16 mph    
Max Gust Speed -    
Visibility 6.1 miles    
Events      
T = Trace of Precipitation, MM = Missing Value Source: Averaged Metar Reports

Daily Weather History Graph

Daily Weather History Graph

Search for Another Location

Airport:

Trip Planner

Search our weather history database for the weather conditions in past years. The results will help you decide how hot, cold, wet, or windy it might be!

Date:

Astronomy

Sep. 30, 2013 Rise Set
Actual Time 6:03 AM EEST 5:51 PM EEST
Civil Twilight 5:35 AM EEST 6:18 PM EEST
Nautical Twilight 5:04 AM EEST 6:50 PM EEST
Astronomical Twilight 4:32 AM EEST 7:22 PM EEST
Moon 1:18 AM EEST (9/30) 3:10 PM EEST (9/30)
Length of Visible Light 12h 43m
Length of Day
11h 48m
Waning Crescent, 21% of the Moon is Illuminated
Sep 30
Waning Crescent
Oct 5
New
Oct 12
First Quarter
Oct 19
Full
Oct 27
Last Quarter

Hourly Weather History & Observations

Time (EEST) Temp. Windchill Dew Point Humidity Pressure Visibility Wind Dir Wind Speed Gust Speed Precip Events Conditions
12:50 AM 37.4 °F - 32.0 °F 81% 30.09 in - Variable 2.3 mph - N/A   Clear
1:50 AM 39.2 °F 33.6 °F 32.0 °F 75% 30.09 in - ESE 8.1 mph - N/A   Clear
2:50 AM 39.2 °F 37.0 °F 33.8 °F 81% 30.06 in - West 3.5 mph - N/A   Clear
3:00 AM 39 °F - 33 °F 70%  in 6 mi West 3.5 mph - -  
3:50 AM 33.8 °F - 30.2 °F 87% 30.06 in - Variable 2.3 mph - N/A   Clear
4:50 AM 33.8 °F - 32.0 °F 93% 30.06 in - SSE 2.3 mph - N/A   Clear
5:50 AM 33.8 °F - 30.2 °F 87% 30.06 in - Variable 2.3 mph - N/A   Clear
7:50 AM 44.6 °F - 33.8 °F 66% 30.06 in - East 2.3 mph - N/A   Clear
8:50 AM 53.6 °F - 35.6 °F 51% 30.06 in - Variable 2.3 mph - N/A   Clear
9:00 AM 53 °F - 35 °F 38%  in 6 mi SSE 2.3 mph - -  
9:50 AM 57.2 °F - 33.8 °F 41% 30.06 in - SSW 10.4 mph - N/A   Clear
10:50 AM 60.8 °F - 28.4 °F 29% 30.04 in 6.2 mi West 16.1 mph - N/A   Partly Cloudy
11:50 AM 64.4 °F - 30.2 °F 28% 30.04 in 6.2 mi West 12.7 mph - N/A   Scattered Clouds
12:50 PM 64.4 °F - 30.2 °F 28% 30.04 in 6.2 mi West 12.7 mph - N/A   Scattered Clouds
1:50 PM 66.2 °F - 32.0 °F 28% 30.04 in 6.2 mi West 12.7 mph - N/A   Scattered Clouds
2:50 PM 64.4 °F - 33.8 °F 32% 30.04 in 6.2 mi WSW 9.2 mph - N/A   Scattered Clouds
3:00 PM 64 °F - 33 °F 20%  in 6 mi WSW 9.2 mph - -   Partly Cloudy
3:50 PM 66.2 °F - 30.2 °F 26% 30.04 in 6.2 mi WNW 11.5 mph - N/A   Scattered Clouds
4:50 PM 64.4 °F - 32.0 °F 30% 30.04 in 6.2 mi West 9.2 mph - N/A   Scattered Clouds
5:50 PM 60.8 °F - 32.0 °F 34% 30.04 in 6.2 mi Variable 2.3 mph - N/A   Scattered Clouds
6:50 PM 55.4 °F - 32.0 °F 41% 30.06 in 6.2 mi Variable 1.2 mph - N/A   Partly Cloudy
7:50 PM 50.0 °F - 35.6 °F 58% 30.06 in - East 8.1 mph - N/A   Clear
8:50 PM 50.0 °F - 35.6 °F 58% 30.09 in - ESE 9.2 mph - N/A   Clear
9:00 PM 49 °F - 35 °F 48%  in 6 mi ESE 9.2 mph - -  
9:50 PM 48.2 °F - 35.6 °F 62% 30.09 in - NW 4.6 mph - N/A   Clear
10:50 PM 44.6 °F 42.2 °F 35.6 °F 71% 30.09 in - SSE 4.6 mph - N/A   Clear
11:50 PM 42.8 °F 37.0 °F 35.6 °F 76% 30.09 in - WNW 10.4 mph - N/A   Clear